Regional Weather Roundup
Issued by NWS Grand Forks, ND

Home | Current Version | Previous Version | Text Only | Print | Product List | Glossary Off
Versions: 1 2 3 4 5 6 7 8 9 10 11 12 13 14 15 16 17 18 19 20 21 22 23 24 25 26 27 28 29 30 31 32 33 34 35 36 37 38 39 40 41 42 43 44 45 46 47 48 49 50

000
ASUS43 KFGF 230831
RWRFGF
PRAIRIE TO PINES  WEATHER ROUNDUP
NATIONAL WEATHER SERVICE EASTERN NORTH DAKOTA/GRAND FORKS ND
200 AM CST TUE JAN 23 2018

 **SATELLITE DATA USED TO AUGMENT SKY COVER AT AUTOMATED STATIONS**
 *****  WEATHER ACROSS EASTERN NORTH DAKOTA  *****

CITY           SKY/WX    TMP DP  RH WIND       PRES   REMARKS
GRAND FORKS    CLOUDY    22  17  81 N5        30.07R WCI  16
GRAND FRKS AFB CLOUDY    22  16  79 NE6       30.06S WCI  14
GRAND FRKS NWS   N/A     21 N/A N/A NE6         N/A  WCI  14
DEVILS LAKE    CLOUDY    19  17  92 S8        30.02F WCI   9
FARGO          CLOUDY    22  19  89 N8        30.04S WCI  12
WAHPETON ARPT  CLOUDY    23  19  86 N14       30.04R WCI  11
$$

 ***** WEATHER ACROSS CENTRAL AND WESTERN NORTH DAKOTA  *****

CITY           SKY/WX    TMP DP  RH WIND       PRES   REMARKS
BISMARCK       CLOUDY    19  17  92 SW5       30.03S FOG     WCI  12
MINOT          FAIR      13   9  84 SE6       29.95F WCI   4
JAMESTOWN      CLOUDY    20  18  92 CALM      30.03R
MINOT AFB      FAIR      10   7  87 S6        29.94F WCI   1
GARRISON         N/A     14  11  87 CALM      29.96F
WILLISTON      FAIR      21  15  78 SW10      29.99R WCI  10
DICKINSON      FAIR      25  19  78 W12       29.96F WCI  14
HETTINGER      FAIR      25  19  78 NW7       30.02S WCI  17
$$

 *****  OTHER AIRPORT OBSERVATIONS IN OUR AREA  *****

CITY           SKY/WX    TMP DP  RH WIND       PRES   REMARKS
WALHALLA       FAIR      21  21 100 S7        30.04F WCI  13
GRAFTON AIRPOR CLOUDY    23  18  80 CALM      30.09S
VALLEY CITY AR CLOUDY    19  19 100 NW6       30.06R WCI  11
CANDO          CLOUDY    19  19 100 S6        30.01S FOG     WCI  11
CAVALIER APRT    N/A     23  18  80 SW6       30.05F WCI  16
GWINNER          N/A     21  19  93 NW9       30.04R WCI  11
SHEYENNE NWR     N/A     22  19  87 N7        29.95S WCI  13
ROLLA          CLOUDY    19  19 100 SW14      29.96S FOG     WCI   6
 ***** THE ABOVE OBSERVATIONS ARE NON NWS ARE NOT QUALITY
       CONTROLLED AND MAY MIS-REPORT RAIN FOR SNOW...
$$

  *****  WEATHER ACROSS NORTHERN MINNESOTA  *****

CITY           SKY/WX    TMP DP  RH WIND       PRES   REMARKS
FLAG ISLAND    CLOUDY    14  10  85 N8        30.05S WCI   3
WARROAD        CLOUDY    18  12  79 N5        30.06R WCI  11
ROSEAU         CLOUDY    19  16  86 CALM      30.05S
HALLOCK        CLOUDY    21  16  79 CALM      30.07S
THF RVR FALLS  NOT AVBL
BAUDETTE       CLOUDY    15  10  80 N9        30.02R WCI   3
WASKISH        CLOUDY    18  14  86 N5        30.01R WCI  11
CROOKSTON      CLOUDY    21  16  79 N8        30.08R WCI  12
STEPHEN NDAWN    N/A     19  16  86 CALM        N/A
GREENBUSH NDAW   N/A     18  12  79 E3          N/A
$$
  *****  WEATHER ACROSS CENTRAL AND WEST MINNESOTA  *****

CITY           SKY/WX    TMP DP  RH WIND       PRES   REMARKS
FOSSTON        CLOUDY    18  16  93 N5        30.02R WCI  11
BEMIDJI        CLOUDY    19  15  83 N6        29.99R WCI  11
PARK RAPIDS    CLOUDY    20  15  81 N10       29.95S WCI   9
ELBOW LAKE     CLOUDY    23  18  81 N9        29.99S WCI  13
WADENA         CLOUDY    19  16  86 N12       29.97R WCI   7
DETROIT LAKES  CLOUDY    21  18  86 NE8       30.00R WCI  12
MOORHEAD       CLOUDY    21  18  86 N8        30.05R WCI  12
FERGUS FALLS   CLOUDY    21  18  86 N8        30.01R WCI  12
MORRIS MN      CLOUDY    25  18  74 N9        29.98R WCI  15
STAPLES        FAIR      18  14  86 N7        29.96R WCI   8
$$
  *****  WEATHER ELSEWHERE ACROSS MINNESOTA  *****

CITY           SKY/WX    TMP DP  RH WIND       PRES   REMARKS
DULUTH         FAIR      13   8  81 N9        29.86R WCI   1
INTRNTL FALLS  FAIR      10   5  80 N10       30.01S WCI  -4
ELY            FAIR       3   0  85 VRB5      29.92R WCI  -6
CLOQUET        FAIR      12   9  85 N13G20    29.89R WCI  -3
WHEATON        CLOUDY    23  18  80 N12       30.05R WCI  12
BRAINERD       FAIR      19  14  81 N13       29.93R WCI   6
HIBBING        FAIR       8   5  87 N13       29.93R WCI  -8
ALEXANDRIA     CLOUDY    22  17  81 N15G22    29.95R WCI   9
SAINT CLOUD    FAIR      21  15  78 N12       29.90R WCI   9
MINNEAPOLIS    CLOUDY    25  19  78 N14       29.85R WCI  13
$$

  *****  WEATHER ACROSS SOUTH DAKOTA  *****

CITY           SKY/WX    TMP DP  RH WIND       PRES   REMARKS
SIOUX FALLS    CLOUDY    23  21  92 N18G24    29.98R WCI   9
BROOKINGS      CLOUDY    20  19  96 N17       29.98R WCI   5
WATERTOWN      CLOUDY    20  19  96 NW16      29.98R WCI   6
HURON          CLOUDY    20  19  96 NW14      30.06R WCI   7
SISSETON         N/A     22  19  89 N17       30.02R WCI   8
ABERDEEN       CLOUDY    21  20  96 NW12      30.06R WCI   9
MITCHELL       CLOUDY    21  20  96 NW14      30.06R WCI   8
PIERRE         FOG       22  21  96 W7        30.05S VSB 1/4 WCI  13
MOBRIDGE       FOG       21  18  88 NW6       30.01F VSB 1/2 WCI  13
RAPID CITY     CLOUDY    34  24  67 NW17      30.06R WCI  23
$$

  *****  SOME WEATHER IN NEARBY STATES *****

CITY           SKY/WX    TMP DP  RH WIND       PRES   REMARKS
GLASGOW MT     FAIR      18  14  84 SW5       30.02R WCI  11
GREAT FALLS MT FAIR      27  18  69 SW14      30.07S WCI  16
CHEYENNE WY    CLOUDY    26  14  60 NW14      30.07F WCI  14
SCOTTSBLUFF NE CLOUDY    27  18  69 W12       30.11S WCI  17
OMAHA NE       CLOUDY    28  25  88 NW16      29.96R WCI  16
DES MOINES IA  FLURRIES  30  25  81 N17G28    29.80R WCI  18
DAVENPORT IA   CLOUDY    35  32  88 NW13      29.62R
CHICAGO IL     CLOUDY    38  31  76 W10       29.49S
EAU CLAIRE WI  LGT SNOW  23  20  88 N13G22    29.74R FOG     WCI  11
LA CROSSE WI   LGT SNOW  29  25  85 N14G24    29.71R FOG     WCI  18
$$

  *****  SOME NATIONAL WEATHER *****

CITY           SKY/WX    TMP DP  RH WIND       PRES   REMARKS
LA GUARDIA NY  FOG       36  36 100 NE8       29.95F VSB 1
RALEIGH NC     LGT RAIN  62  59  90 S21G32    29.86F
ATLANTA GA     MOCLDY    60  55  83 W15G26    29.87R
NEW ORLEANS LA FAIR      54  32  43 NW12      30.09S
OKLAHOMA CITY  FAIR      36  16  44 NW14      30.11R
ALBUQUERQUE NM FAIR      21   8  57 E3        30.23S
SALT LAKE CITY FAIR      29  24  82 S5        30.33F WCI  24
LOS ANGELES CA FAIR      53  37  54 E5        30.17S
BOISE ID       FAIR      30  26  85 SE8       30.33S WCI  22
SEATTLE WA     MOCLDY    41  35  79 SE6       30.25S
$$

*** WEATHER ACROSS MANITOBA...SASKATCHEWAN AND ONTARIO ***
                ***ONTARIO***

CITY           SKY/WX    TMP DP  RH WIND       PRES   REMARKS
GERALDTON      FLURRIES  -6 -13  71 NE14      30.01R WCI -26
THUNDER BAY    CLOUDY     9  -2  61 N8        29.94R WCI  -4
SIOUX LOOKOUT  CLEAR     -4  -8  84 VRB2      30.06R
TORONTO        LGT RAIN  36  36 100 NW6       29.54R
BIG TROUT LK   NOT AVBL
PICKLE LAKE    NOT AVBL
DRYDEN         CLEAR      3   0  85 NE7       30.03S WCI  -9
KENORA         FLURRIES  12   9  85 NE5       30.04R WCI   4
$$
                *** MANITOBA***

CITY           SKY/WX    TMP DP  RH WIND       PRES   REMARKS
BRANDON        CLOUDY    23  19  86 S7        29.96F WCI  15
DAUPHIN        CLOUDY    25  23  93 SW3       29.95S
ISLAND LAKE    CLEAR     -9 -15  77 E5        30.20  WCI -21
PILOT MOUND      N/A     18  18 100 S10         N/A  WCI   6
THE PAS        LGT SNOW   5   0  78 E6        30.00F WCI  -6
THOMPSON       PTCLDY   -17 -24  70 NE8       30.24S WCI -34
WINNIPEG       FLURRIES  21  16  79 S7        30.06S WCI  13
LYNN LAKE      CLOUDY   -15 -18  84 E8        30.15  WCI -32
CHURCHILL      CLEAR    -13 -18  77 E6        30.49S WCI -27
GILLAM         CLEAR    -20 -26  76 E5        30.36R WCI -33
$$
                ***SASKATCHEWAN***

CITY           SKY/WX    TMP DP  RH WIND       PRES   REMARKS
ESTEVAN        PTCLDY    12   9  85 SW8       29.93S WCI   1
KINDERSLEY     CLEAR     18  14  86 NW8       29.96S WCI   7
LLOYDMINSTER   FRZ RAIN  19  18  93 W9        29.94R VSB 5/8 WCI   9
PRINCE ALBERT  FLURRIES  10   7  85 S2        29.96S
REGINA         CLOUDY    18  16  93 NW15      29.95R FOG     WCI   3
YORKTON        CLOUDY    14  14 100 SW8       29.88S WCI   3
N. BATTLEFORD  CLOUDY    21  19  93 W9        29.98R WCI  11
LA RONGE       LGT SNOW   1  -4  78 NE12      29.99  WCI -15
SASKATOON      CLOUDY    21  19  93 W10       29.98R WCI  10
SWIFT CURRENT  CLEAR     21  18  86 W14       29.94S WCI   8
$$
NOTE: THESE ARE AUTOMATED STATIONS WITH LIMITED QUALITY CONTROL
      "FAIR" INDICATES FEW OR NO CLOUDS BELOW 12,000 FEET WITH NO
      SIGNIFICANT WEATHER AND/OR OBSTRUCTIONS TO VISIBILITY.
      SKY/WX - SKY CONDITION AND SIGNIFICANT WEATHER.
      TMP - AIR TEMPERATURE.    DP   - DEWPOINT TEMPERATURE.
      RH  - RELATIVE HUMIDITY.  PRES - PRESSURE.
      HX  - HEAT INDEX.         WCI  - WIND CHILL INDEX.
$



USA.gov is the U.S. government's official web portal to all federal, state and local government web resources and services.